Regional Weather Roundup
Issued by NWS Newport/Morehead, NC

Current Version | Previous Version | Text Only | Print | Product List | Glossary On
Versions: 1 2 3 4 5 6 7 8 9 10 11 12 13 14 15 16 17 18 19 20 21 22 23 24 25 26 27 28 29 30 31 32 33 34 35 36 37 38 39 40 41 42 43 44 45 46 47 48 49 50
000
ASUS42 KMHX 230312
RWRMHX
WEATHER ROUNDUP FOR EASTERN NORTH CAROLINA
NATIONAL WEATHER SERVICE NEWPORT/MOREHEAD CITY NC
1100 PM EDT FRI MAY 22 2015

NOTE: "FAIR" INDICATES FEW OR NO CLOUDS BELOW 12,000 FEET
WITH NO SIGNIFICANT WEATHER AND/OR OBSTRUCTIONS TO VISIBILITY

NCZ015>017-031-032-045>047-102-103-230400-
NORTH COAST

CITY           SKY/WX    TMP DP  RH WIND       PRES   REMARKS
EDENTON        CLEAR     56  52  86 CALM      30.26R
ELIZABETH CITY CLEAR     59  52  77 SW5       30.25R
KITTY HAWK     CLEAR     62  50  64 SW5       30.25S
MANTEO         CLEAR     65  51  59 SW8       30.27R

$$

NCZ045>047-081-094-103-104-230400-
CENTRAL COAST

CITY           SKY/WX    TMP DP  RH WIND       PRES   REMARKS
FRISCO         CLEAR     51  44  77 CALM      30.27R
SWANQUARTER      N/A     59 N/A N/A E3        30.24S

$$

NCZ095-097-098-100-101-230400-
SOUTHERN COAST

CITY           SKY/WX    TMP DP  RH WIND       PRES   REMARKS
BEAUFORT       CLEAR     59  56  89 CALM      30.28R
CEDAR ISLAND     N/A     64 N/A N/A SE3       30.30S
JACKSONVILLE   PTCLDY    59  56  89 CALM      30.27R
PINEY ISLAND   CLEAR    N/A N/A N/A S3        30.27R
WILMINGTON     CLEAR     61  58  90 CALM      30.27R


$$

NCZ011>013-027>030-043-044-078>080-089-090>093-098-230400-
COASTAL PLAIN

CITY           SKY/WX    TMP DP  RH WIND       PRES   REMARKS
AHOSKIE        CLEAR     54  51  91 CALM      30.27R
CLINTON        CLEAR     58  55  90 CALM      30.28R
ELIZABETHTOWN  CLEAR     60  53  76 CALM      30.27R
GOLDSBORO      CLEAR     58  51  80 CALM      30.26R
GREENVILLE     CLEAR     57  55  94 CALM      30.28R
HAVELOCK       CLEAR     59  53  80 CALM      30.29R
KENANSVILLE    CLEAR     55  53  94 CALM      30.29R
KINSTON        CLEAR     56  54  93 CALM      30.28R
NEW BERN       CLEAR     58  54  86 CALM      30.29R
RICHLANDS      CLEAR     55  48  76 CALM      30.28R
ROCKY MOUNT    CLEAR     54  52  93 SW3       30.27R
WASHINGTON     CLEAR     58  51  76 CALM      30.28R
WHITEVILLE     CLEAR     60  55  84 CALM      30.27R

$$

AMZ130-135-150-152-154-156-158-170-250-252-270-ANZ085-086-088-633-658-670-230400-
MARINE OBSERVATIONS

STATION/POSITION TIME  TEMP    WIND        PRES    WAVE   SWELL
                       AIR SEA DIR/SP/G            HT/PER HT/PER
                 (UTC) (F)     (DEG/KT/KT) (MB)    (FT/S) (FT/S)
CHESAPEAKE LIGHT 0300   63     200/ 16/ 17 1024.0
64 E VA BEACH    0250   62 60  220/  8/ 10 1023.5    2/ 6   2/ 6
DUCK             0200   64 64  160/  6/  8 1023.2
2 E DUCK         0211      65                N/A     2/ 7
OREGON INLET     0200   65 70  180/  5/  7 1024.3
13E OREGON INLT  0300      62                N/A     3/ 7
HATTERAS CG      0200   64 74   90/  2/  3 1024.3
DIAMOND BUOY     0250   67 77   30/  4/  6 1025.1    3/ 9   3/ 9
CAPE LOOKOUT     0300   67      80/  3/  4 1025.0
BEAUFORT LAB     0200   67 74  160/  3/  4 1023.8
27 SE WRIGHTSVLE 0200   67 77   70/  6/  8   N/A
5 SE WRIGHTSVLE  0208   71 76   70/  4/ 10 1024.3
225 S CAPE HAT   0250   72 74   50/ 17/ 19 1022.8    6/ 8   3/ 8
41 SE CHARLESTON 0250   72 76   60/ 14/ 16 1023.4    3/ 6   2/ 8

$$


USA.gov is the U.S. government's official web portal to all federal, state and local government web resources and services.